Richmond, VA

6:38 PM EDT on June 21, 2018 (GMT -0400)
Richmond International

Weather History for KRIC - September, 2017

Change the Weather History Date:

Wednesday, September 13, 2017

  Actual Average Record
Temperature  
Mean Temperature 75 °F 72 °F  
Max Temperature 84 °F 82 °F 96 °F (1897)
Min Temperature 65 °F 61 °F 44 °F (1941)
Degree Days  
Heating Degree Days 0 0  
Month to date heating degree days 9 0  
Since 1 July heating degree days 9 1  
Cooling Degree Days 10 7  
Month to date cooling degree days 39 115  
Year to date cooling degree days 1452 1422  
Growing Degree Days 25 (Base 50)    
Moisture  
Dew Point 67 °F    
Average Humidity 76    
Maximum Humidity 100    
Minimum Humidity 51    
Precipitation  
Precipitation 0.06 in 0.15 in 3.26 in (1944)
Month to date precipitation 1.48 1.87  
Year to date precipitation 30.53 31.86  
Snow  
Snow 0.00 in 0.00 in 0.00 in (2002)
Month to date snowfall 0.0 0.0  
Since 1 July snowfall 0.0 0.0  
Snow Depth 0.00 in    
Sea Level Pressure  
Sea Level Pressure 29.90 in    
Wind  
Wind Speed 6 mph (SSE)    
Max Wind Speed 16 mph    
Max Gust Speed 21 mph    
Visibility 6 miles    
Events Fog , Rain    
T = Trace of Precipitation, MM = Missing Value Source: NWS Daily Summary

Daily Weather History Graph

Daily Weather History Graph

Search for Another Location

Airport or City:

Astronomy

Sep. 13, 2017 Rise Set
Actual Time 6:49 AM EDT 7:19 PM EDT
Civil Twilight 6:23 AM EDT 7:45 PM EDT
Nautical Twilight 5:52 AM EDT 8:16 PM EDT
Astronomical Twilight 5:20 AM EDT 8:48 PM EDT
Moon No Moon Rise 2:28 PM EDT (9/13)
Length of Visible Light 13h 22m
Length of Day
12h 29m
Last Quarter, 46% of the Moon is Illuminated
Sep 13
Last Quarter
Sep 20
New
Sep 27
First Quarter
Oct 5
Full
Oct 12
Last Quarter

Hourly Weather History & Observations

Time (EDT) Temp. Heat Index Dew Point Humidity Pressure Visibility Wind Dir Wind Speed Gust Speed Precip Events Conditions
12:26 AM 66.9 °F - 66.0 °F 97% 29.91 in 4.0 mi East 4.6 mph - 0.01 in Rain Light Rain
12:54 AM 66.9 °F - 66.0 °F 97% 29.91 in 2.5 mi ENE 5.8 mph - 0.03 in Rain Light Rain
1:17 AM 66.9 °F - 66.0 °F 97% 29.90 in 1.5 mi East 5.8 mph - 0.03 in Rain Rain
1:28 AM 66.9 °F - 66.0 °F 97% 29.89 in 2.0 mi ENE 5.8 mph - 0.04 in Rain Light Rain
1:32 AM 66.9 °F - 66.0 °F 97% 29.89 in 2.0 mi East 5.8 mph - 0.05 in Rain Light Rain
1:54 AM 66.9 °F - 66.9 °F 100% 29.91 in 2.5 mi East 5.8 mph - 0.06 in Rain Light Rain
2:01 AM 66.9 °F - 66.9 °F 100% 29.89 in 6.0 mi East 4.6 mph - 0.00 in Rain Light Rain
2:54 AM 68.0 °F - 68.0 °F 100% 29.89 in 5.0 mi SE 5.8 mph - 0.00 in   Overcast
3:54 AM 68.0 °F - 68.0 °F 100% 29.89 in 3.0 mi East 3.5 mph - N/A   Overcast
4:54 AM 68.0 °F - 68.0 °F 100% 29.89 in 3.0 mi Calm Calm - N/A   Overcast
5:14 AM 69.1 °F - 69.1 °F 100% 29.88 in 2.0 mi Calm Calm - N/A   Overcast
5:27 AM 68.0 °F - 68.0 °F 100% 29.88 in 1.5 mi Calm Calm - N/A   Overcast
5:41 AM 69.1 °F - 69.1 °F 100% 29.88 in 1.2 mi Calm Calm - N/A   Overcast
5:43 AM 69.1 °F - 69.1 °F 100% 29.89 in 0.5 mi Calm Calm - N/A Fog Fog
5:54 AM 69.1 °F - 69.1 °F 100% 29.90 in 0.5 mi SE 3.5 mph - N/A Fog Fog
6:54 AM 69.1 °F - 69.1 °F 100% 29.91 in 0.5 mi SSE 3.5 mph - N/A Fog Fog
7:54 AM 70.0 °F - 70.0 °F 100% 29.92 in 1.0 mi SSE 4.6 mph - N/A   Mostly Cloudy
8:54 AM 72.0 °F - 72.0 °F 100% 29.93 in 1.0 mi South 5.8 mph - N/A   Overcast
9:54 AM 73.0 °F - 71.1 °F 93% 29.94 in 7.0 mi SSW 5.8 mph - N/A   Overcast
10:54 AM 73.9 °F - 71.1 °F 91% 29.95 in 10.0 mi SSW 5.8 mph - N/A   Mostly Cloudy
11:27 AM 78.1 °F - 71.1 °F 79% 29.92 in 10.0 mi Variable 6.9 mph - N/A   Scattered Clouds
11:54 AM 79.0 °F - 70.0 °F 74% 29.93 in 10.0 mi South 10.4 mph - N/A   Scattered Clouds
12:54 PM 82.0 °F 85.5 °F 69.1 °F 65% 29.91 in 10.0 mi South 11.5 mph - N/A   Scattered Clouds
1:54 PM 82.9 °F 85.4 °F 66.9 °F 58% 29.90 in 10.0 mi SSW 10.4 mph - N/A   Scattered Clouds
2:54 PM 82.9 °F 85.0 °F 66.0 °F 56% 29.88 in 10.0 mi SW 10.4 mph 18.4 mph N/A   Partly Cloudy
3:54 PM 84.0 °F 85.4 °F 64.0 °F 51% 29.87 in 10.0 mi SSW 15.0 mph - N/A   Partly Cloudy
4:54 PM 84.0 °F 85.4 °F 64.0 °F 51% 29.87 in 10.0 mi SW 9.2 mph - N/A   Partly Cloudy
5:54 PM 82.0 °F 83.1 °F 63.0 °F 52% 29.87 in 10.0 mi SW 9.2 mph - N/A   Partly Cloudy
6:54 PM 79.0 °F - 64.0 °F 60% 29.88 in 10.0 mi SSW 6.9 mph - N/A   Partly Cloudy
7:54 PM 73.0 °F - 64.9 °F 76% 29.88 in 10.0 mi South 3.5 mph - N/A   Partly Cloudy
8:54 PM 70.0 °F - 64.0 °F 81% 29.90 in 10.0 mi Calm Calm - N/A   Partly Cloudy
9:54 PM 69.1 °F - 64.9 °F 87% 29.90 in 10.0 mi South 4.6 mph - N/A   Clear
10:54 PM 68.0 °F - 64.9 °F 90% 29.91 in 10.0 mi South 5.8 mph - N/A   Clear
11:54 PM 66.0 °F - 64.0 °F 93% 29.91 in 10.0 mi South 5.8 mph - N/A   Clear